Regional Weather Roundup
Issued by NWS Sioux Falls, SD

Home | Current Version | Previous Version | Graphics & Text | Print | Product List | Glossary On
Versions: 1 2 3 4 5 6 7 8 9 10 11 12 13 14 15 16 17 18 19 20 21 22 23 24 25 26 27 28 29 30 31 32 33 34 35 36 37 38 39 40 41 42 43 44 45 46 47 48 49 50
895
ASUS43 KFSD 281110
RWRFSD

WEATHER ROUNDUP FOR SE SOUTH DAKOTA/SW MINNESOTA/NW IOWA
NATIONAL WEATHER SERVICE SIOUX FALLS SD
600 AM CDT FRI APR 28 2017

NOTE: "FAIR" INDICATES FEW OR NO CLOUDS BELOW 12,000 FEET WITH NO
SIGNIFICANT WEATHER AND OR OBSTRUCTIONS TO VISIBILITY.


SDZ038>040-050-052>070-281200-
SOUTHEAST SOUTH DAKOTA

CITY           SKY/WX    TMP DP  RH WIND       PRES   REMARKS
BROOKINGS      CLEAR     25  23  92 CALM      29.87R
CHAMBERLAIN    CLOUDY    32  30  92 CALM      29.85R
HURON          CLEAR     24  22  91 N3        29.88R
MADISON        FAIR      23  23 100 NW5       29.85S WCI  17
MITCHELL       CLOUDY    26  24  92 N6        29.86S WCI  19
SIOUX FALLS    CLOUDY    26  25  96 N7        29.85S WCI  18
WINNER         CLOUDY    36  29  75 E9        29.81R
YANKTON        CLOUDY    30  25  80 NE3       29.83F
$$

MNZ071-072-080-081-089-090-097-098-281200-
SOUTHWEST MINNESOTA

CITY           SKY/WX    TMP DP  RH WIND       PRES   REMARKS
FAIRMONT       CLEAR     27  26  96 CALM      29.86F
JACKSON        CLEAR     28  27  93 CALM      29.85F
LUVERNE        CLEAR     27  27 100 NE7       29.85F WCI  19
MARSHALL       CLEAR     29  26  89 NW9       29.88R WCI  20
MONTEVIDEO     CLEAR     30  27  86 NW3       29.88R
PIPESTONE      CLEAR     28  23  80 E3        29.84F
REDWOOD FALLS  CLEAR     32  27  81 NW8       29.87R WCI  25
TRACY          CLEAR     32  30  90 NW8       29.87S WCI  25
WINDOM         CLEAR     25  23  93 W3        29.85F
WORTHINGTON    CLEAR     25  24  96 N5        29.85F WCI  19
$$

IAZ001>003-012>014-020>022-031-032-NEZ013-014-SDZ071-281200-
NORTHWEST IOWA

CITY           SKY/WX    TMP DP  RH WIND       PRES   REMARKS
CHEROKEE       CLOUDY    29  28  95 CALM      29.86R
DENISON        CLOUDY    36  28  75 E12G18    29.84S
ESTHERVILLE    CLEAR     24  23  96 CALM      29.85S
LE MARS        PTCLDY    32  27  80 NE6       29.85S WCI  26
ORANGE CITY    CLOUDY    28  27  93 CALM      29.84R
SHELDON        CLOUDY    28  27  93 NE7       29.83S WCI  21
SIOUX CITY     MOCLDY    33  28  81 E6        29.83F WCI  28
SPENCER        CLEAR     25  23  92 N7        29.84F WCI  17
STORM LAKE     CLOUDY    30  27  86 E8        29.84S WCI  23
$$

ABBREVIATIONS USED IN REMARKS
   TC - TEMPERATURE IN CELSIUS
  WCI - WIND CHILL INDEX
   HX - HEAT INDEX
  VSB - VISIBILITY





USA.gov is the U.S. government's official web portal to all federal, state and local government web resources and services.